#timestamp,LO_Frequency,Hit 
1503806415.8,286046998.4,N
1503806435.6,286046999.6,N
1503806455.4,286046997.2,N
1503806475.3,286046996.9,N
1503806495.1,286046996.3,N
1503806515.9,286046993.7,P
1503806535.7,286046994.4,N
1503806555.5,286046996.3,N
1503806575.3,286046995.2,N
1503806595.2,286046995.8,N
1503806615.0,286046993.8,N
1503806615.9,286046993.8,N
1503806635.7,286046996.3,N
1503806655.6,286046993.3,P
1503806675.4,286046998.8,N
1503806695.3,286047000.7,N
1503806715.1,286046998.3,N
1503806716.0,286046998.3,N
1503806735.8,286047002.6,N
1503806755.6,286047004.0,N
1503806775.5,286047004.2,N
1503806795.3,286047001.3,N
1503806815.1,286047003.3,N
1503806835.9,286047005.7,N
1503806855.7,286047003.2,N
1503806875.5,286047002.1,N
1503806895.4,286047001.7,N
1503806915.2,286047002.9,N
1503806935.0,286047004.0,N
1503806935.9,286047004.0,N
1503806955.8,286047001.6,N
1503806975.6,286047002.1,N
1503806995.4,286047000.2,N
1503807015.3,286047002.7,N
1503807035.1,286047002.3,N
1503807036.0,286047002.3,N
1503807055.8,286047002.2,N
1503807075.6,286047001.3,N
1503807095.5,286047000.4,N
1503807115.3,286047002.6,N
1503807135.1,286046998.3,N
1503807155.9,286046998.4,N
1503807175.7,286047004.0,N
1503807195.5,286047005.8,N
1503807215.4,286047004.3,N
1503807235.2,286047002.0,N
1503807255.0,286047004.3,N
1503807255.9,286047004.3,N
1503807275.8,286047002.6,N
1503807295.6,286046998.2,N
1503807315.4,286046999.9,N
1503807335.3,286047004.1,N
1503807355.1,286047006.0,P
1503807356.0,286047006.0,P
1503807375.8,286047001.9,N
1503807395.7,286047003.3,N
1503807415.5,286047005.5,P
1503807435.3,286046999.7,N
1503807455.2,286047000.3,N
1503807475.9,286047000.3,N
1503807495.7,286047002.5,N
1503807515.6,286047002.8,N
1503807535.4,286046999.7,N
1503807555.2,286047000.6,N
1503807575.1,286047000.5,N
1503807576.0,286047000.5,N
1503807595.8,286046998.5,N
1503807615.6,286046999.2,N
1503807635.5,286046998.4,N
1503807655.3,286047000.7,N
1503807675.1,286046998.6,N
1503807695.8,286046999.2,N
1503807715.7,286046997.7,N
1503807735.5,286046996.2,N
1503807755.3,286046995.9,N
1503807775.2,286046996.1,N
1503807795.9,286046995.7,N
1503807815.7,286046993.9,N
1503807835.6,286046994.3,N
1503807855.4,286046990.1,P
1503807875.2,286046992.9,N
1503807895.1,286046990.3,N
1503807896.0,286046990.3,N
1503807915.8,286046992.5,N
1503807935.6,286046994.4,N
1503807955.5,286046994.8,N
1503807975.3,286046993.7,N
1503807995.1,286046993.9,N
1503808015.9,286046994.2,N
1503808035.7,286046994.6,N
1503808055.4,286046993.0,N
1503808075.2,286046995.9,N
1503808095.1,286046993.7,N
1503808096.0,286046993.7,N
1503808115.7,286046993.8,N
1503808135.6,286046994.3,N
1503808155.4,286046992.5,P
1503808175.2,286047001.1,N
1503808195.1,286047000.0,N
1503808196.0,286047000.0,N
1503808215.8,286047004.4,N
1503808235.6,286047002.5,N
1503808255.5,286047001.4,N
1503808275.3,286047004.2,N
1503808295.1,286047005.7,N
1503808315.9,286047005.7,N
1503808335.7,286047002.9,N
1503808355.5,286047003.2,N
1503808375.4,286047005.8,N
1503808395.2,286047007.1,N
1503808415.0,286047006.5,N
1503808415.9,286047006.5,N
1503808435.8,286047006.8,N
1503808455.6,286047005.0,N
1503808475.4,286047005.6,N
1503808495.3,286047005.9,N
1503808515.1,286047004.8,N
1503808516.0,286047004.8,N
1503808535.8,286047006.7,N
1503808555.7,286047006.6,N
1503808575.5,286047008.4,N
1503808595.3,286047010.9,N
1503808615.2,286047012.0,P
1503808635.9,286047008.0,N
1503808655.7,286047008.2,N
1503808675.6,286047009.1,P
1503808695.4,286046998.1,P
1503808715.2,286046997.3,N
1503808735.1,286046994.9,N
1503808736.0,286046994.9,N
1503808755.8,286046998.5,N
1503808775.6,286046998.7,N
1503808795.5,286046996.8,N
1503808815.3,286046998.0,N
1503808835.1,286046998.0,N
1503808855.9,286046995.2,N
1503808875.7,286046996.4,N
1503808895.5,286046994.5,N
1503808915.3,286046993.5,N
1503808935.2,286046993.4,N
1503808955.0,286046995.0,N
1503808955.9,286046995.0,N
1503808975.7,286046995.6,N
1503808995.6,286046997.2,N
1503809015.4,286046995.2,N
1503809035.2,286046997.7,N
1503809055.1,286046995.3,N
1503809056.0,286046995.3,N
1503809075.8,286046997.9,N
1503809095.6,286046998.4,N
1503809115.5,286046999.0,N
1503809135.3,286046999.6,N
1503809155.1,286046998.6,N
1503809175.9,286046998.1,N
1503809195.7,286046999.3,N
1503809215.5,286046999.8,N
1503809235.3,286046999.3,N
1503809255.2,286046996.3,N
1503809275.0,286046996.1,N
1503809275.9,286046996.1,N
1503809295.7,286046998.4,N
1503809315.6,286047002.8,N
1503809335.4,286047001.2,N
1503809355.2,286047003.1,N
1503809375.1,286046999.7,N
1503809376.0,286046999.7,N
1503809395.8,286047001.2,N
1503809415.6,286046996.9,N
1503809435.5,286046997.5,N
1503809455.3,286046999.3,N
1503809475.1,286047000.5,N
1503809495.9,286047001.1,N
1503809515.7,286046998.2,N
1503809535.5,286046999.5,N
1503809555.4,286046999.1,N
1503809575.2,286046999.0,N
1503809595.0,286046997.3,N
1503809595.9,286046997.3,N
1503809615.8,286047000.7,N
1503809635.6,286046999.7,N
1503809655.4,286046998.2,N
1503809675.2,286047001.1,N
1503809695.1,286047001.2,N
1503809696.0,286047001.2,N
1503809715.8,286046998.1,N
1503809735.6,286047001.1,N
1503809755.5,286046998.5,N
1503809775.3,286047000.3,N
1503809795.1,286047000.3,N
1503809815.9,286046998.8,N
1503809835.7,286046997.6,N
1503809855.5,286046996.7,N
1503809875.4,286046997.2,N
1503809895.2,286046996.7,N
1503809915.0,286046999.5,N
1503809915.9,286046999.5,N
1503809935.8,286046996.3,N
1503809955.6,286046995.7,N
1503809975.4,286046997.7,N
1503809995.2,286046997.2,N
